Vineland (Au8), Ontario

9:50 PM EST on February 07, 2016 (GMT -0500)
Vineland (Au8)

Weather History for 71171 - August, 2013

Change the Weather History Date:

Wednesday, August 14, 2013

  Actual Average Record
Temperature  
Mean Temperature 60 °F -  
Max Temperature 69 °F - - ()
Min Temperature 51 °F - - ()
Degree Days  
Heating Degree Days 5    
Growing Degree Days 10 (Base 50)    
Moisture  
Dew Point 48 °F    
Average Humidity 62    
Maximum Humidity 81    
Minimum Humidity 35    
Precipitation  
Precipitation 0.00 in - - ()
Sea Level Pressure  
Sea Level Pressure 29.97 in    
Wind  
Wind Speed 7 mph ()    
Max Wind Speed 13 mph    
Max Gust Speed 20 mph    
T = Trace of Precipitation, MM = Missing Value Source: Averaged Metar Reports

Daily Weather History Graph

Daily Weather History Graph

Search for Another Location

Airport or City:

Trip Planner

Search our weather history database for the weather conditions in past years. The results will help you decide how hot, cold, wet, or windy it might be!

Date:

Astronomy

Aug. 14, 2013 Rise Set
Actual Time 6:22 AM EDT 8:21 PM EDT
Civil Twilight 5:51 AM EDT 8:52 PM EDT
Nautical Twilight 5:13 AM EDT 9:29 PM EDT
Astronomical Twilight 4:32 AM EDT 10:10 PM EDT
Moon 2:33 PM EDT (8/14) No Moon Set
Length of Visible Light 15h 00m
Length of Day
13h 59m
First Quarter, 52% of the Moon is Illuminated
Aug 14
First Quarter
Aug 20
Full
Aug 28
Last Quarter
Sep 5
New
Sep 12
First Quarter

Hourly Weather History & Observations

Time (EDT) Temp. Dew Point Humidity Pressure Visibility Wind Dir Wind Speed Gust Speed Precip Events Conditions
12:00 AM 54.0 °F 46.6 °F 76% 29.88 in - WSW 8.1 mph - N/A   Unknown
1:00 AM 52.9 °F 46.8 °F 80% 29.88 in - WSW 6.9 mph - N/A   Unknown
2:00 AM 52 °F 47 °F 76% 29.88 in - WSW 6.9 mph - -  
2:00 AM 52.3 °F 46.8 °F 81% 29.88 in - WSW 6.9 mph - N/A   Unknown
3:00 AM 54.0 °F 47.8 °F 80% 29.88 in - West 10.4 mph - N/A   Unknown
4:00 AM 57.0 °F 50.2 °F 78% 29.88 in - WNW 11.5 mph - N/A   Unknown
5:00 AM 56.7 °F 50.5 °F 80% 29.89 in - WNW 10.4 mph - N/A   Unknown
6:00 AM 57.7 °F 50.9 °F 78% 29.91 in - NW 11.5 mph 17.3 mph N/A   Unknown
7:00 AM 58.6 °F 51.1 °F 76% 29.93 in - NNW 11.5 mph 18.4 mph N/A   Unknown
8:00 AM 59 °F 51 °F 69% 29.95 in - NW 11.5 mph - -  
8:00 AM 58.6 °F 51.4 °F 77% 29.95 in - NW 11.5 mph 18.4 mph N/A   Unknown
9:00 AM 60.3 °F 51.6 °F 73% 29.97 in - NNW 11.5 mph 18.4 mph N/A   Unknown
10:00 AM 60.3 °F 50.2 °F 69% 29.98 in - NNW 10.4 mph 18.4 mph N/A   Unknown
11:00 AM 63.5 °F 49.1 °F 59% 30.00 in - North 12.7 mph 19.6 mph N/A   Unknown
12:00 PM 65.5 °F 49.8 °F 57% 30.02 in - North 10.4 mph - N/A   Unknown
1:00 PM 66.0 °F 49.6 °F 55% 30.01 in - North 8.1 mph - N/A   Unknown
2:00 PM 67 °F 48 °F 40% 30.02 in - WNW 5.8 mph - -  
2:00 PM 66.9 °F 48.4 °F 51% 30.02 in - WNW 5.8 mph - N/A   Unknown
3:00 PM 68.0 °F 45.9 °F 45% 30.01 in - North 4.6 mph - N/A   Unknown
4:00 PM 68.5 °F 42.8 °F 39% 30.02 in - NNW 5.8 mph - N/A   Unknown
5:00 PM 69.3 °F 41.0 °F 36% 30.02 in - NNW 3.5 mph - N/A   Unknown
6:00 PM 69.8 °F 40.6 °F 35% 30.02 in - NW 3.5 mph - N/A   Unknown
7:00 PM 69.8 °F 45.0 °F 41% 30.02 in - West 2.3 mph - N/A   Unknown
8:00 PM 65.3 °F 46.9 °F 51% 30.03 in - WNW 3.5 mph - N/A   Unknown
9:00 PM 65.8 °F 50.9 °F 58% 30.04 in - NNW 10.4 mph - N/A   Unknown
10:00 PM 63.0 °F 49.6 °F 62% 30.06 in - NW 6.9 mph - N/A   Unknown
11:00 PM 63.1 °F 46.6 °F 55% 30.07 in - NW 8.1 mph - N/A   Unknown